Home   Weather   Gibraltar   Past weeks

Flag for Gibraltar Past Weather in Gibraltar, Gibraltar — Yesterday and Last 2 Weeks

Now
63 °F

Sprinkles. Broken clouds.


Feels Like: 63 °F
Forecast: 61 / 63 °F
Wind: 16 mph from East

Location: Gibraltar Airport

Current Time: Dec 3, 2016 at 4:51:04 pm

Latest Report: Dec 3, 2016 at 3:50 pm


Visibility: 5 mi

Pressure: 29.80 "Hg

Humidity: 94%

Dew Point: 61 °F

Location of GibraltarLocation

Past Weather in Gibraltar — Graph

°F

Gibraltar Temperature Yesterday

Maximum temperature yesterday: 63 °F (at 9:50 am)
Minimum temperature yesterday: 59 °F (at 11:50 pm)
Average temperature yesterday: 61 °F

High & Low Weather Summary for the Past Weeks

 TemperatureHumidityPressure
High70 °F (Nov 18, 4:50 pm)100% (Nov 21, 4:50 am)30.24 "Hg (Nov 21, 4:50 am)
Low50 °F (Nov 24, 8:50 am)46% (Nov 18, 4:50 pm)29.59 "Hg (Nov 22, 3:50 pm)
Average59 °F84%29.90 "Hg
* Reported Nov 18 2:50 pm — Dec 3 2:50 pm, Gibraltar, Weather by CustomWeather, © 2016

Note: Actual official high and low records may vary slightly from our data, if they occured in-between our weather recording intervals... More about our weather records

Advertising

Gibraltar Weather History for the Previous 24 Hours

Scroll right to see more
 ConditionsComfort  
Time TempWeatherWind HumidityBarometerVisibility
2:50 pm
Sat, Dec 3
63 °FBroken clouds.16 mph94%29.80 "HgN/A
1:50 pm63 °FBroken clouds.16 mph94%29.83 "HgN/A
12:50 pm63 °FBroken clouds.15 mph88%29.86 "HgN/A
11:50 am61 °FLight rain. Broken clouds.15 mph94%29.89 "Hg6 mi
10:50 am61 °FLight rain. Broken clouds.14 mph94%29.89 "HgN/A
9:50 am61 °FBroken clouds.12 mph94%29.89 "HgN/A
8:50 am61 °FLight rain. More clouds than sun.13 mph94%29.89 "Hg5 mi
7:50 am59 °FRain. Partly cloudy.12 mph100%29.89 "Hg4 mi
6:50 am59 °FLow clouds.14 mph94%29.89 "Hg4 mi
5:50 am59 °FLight rain. Mostly cloudy.12 mph94%29.89 "Hg6 mi
4:50 am59 °FLow clouds.14 mph100%29.89 "HgN/A
3:50 am59 °FPassing clouds.10 mph100%29.92 "HgN/A
2:50 am59 °FPassing clouds.13 mph100%29.92 "HgN/A
1:50 am59 °FPassing clouds.14 mph94%29.95 "Hg5 mi
12:50 am59 °FPartly cloudy.9 mph100%29.95 "Hg2 mi
11:50 pm
Fri, Dec 2
59 °FPassing clouds.13 mph100%29.98 "HgN/A
10:50 pm61 °FPassing clouds.15 mph94%29.98 "Hg3 mi
9:50 pm61 °FPartly cloudy.13 mph94%30.01 "Hg4 mi
8:50 pm61 °FLight rain. Passing clouds.12 mph88%30.01 "Hg6 mi
7:50 pm61 °FLight rain. Passing clouds.9 mph88%30.01 "Hg6 mi
6:50 pm61 °FPartly cloudy.8 mph88%30.01 "HgN/A
5:50 pm61 °FLight rain. Broken clouds.7 mph88%30.01 "HgN/A
4:50 pm63 °FBroken clouds.8 mph83%30.04 "HgN/A
Weather by CustomWeather, © 2016

See weather overviewHow to use our weather pages